Time,TemperatureF,DewpointF,PressureIn,WindDirection,WindDirectionDegrees,WindSpeedMPH,WindSpeedGustMPH,Humidity,HourlyPrecipIn,Conditions,Clouds,dailyrainin,SolarRadiationWatts/m^2,SoftwareType,DateUTC
2013-03-23 00:02:00,41.0,7.0,-100.00,NNW,344,3.0,7.0,24,0.00,,,0.00,0.000000,,2013-03-23 07:02:00,
2013-03-23 00:22:00,41.0,7.0,-100.00,NNW,344,3.0,7.0,24,0.00,,,0.00,0.000000,,2013-03-23 07:22:00,
2013-03-23 00:33:00,41.0,7.0,-100.00,NNW,344,3.0,7.0,24,0.00,,,0.00,0.000000,,2013-03-23 07:33:00,
2013-03-23 00:42:00,41.0,7.0,-100.00,NNW,344,3.0,7.0,24,0.00,,,0.00,0.000000,,2013-03-23 07:42:00,
2013-03-23 00:52:00,41.0,7.0,-100.00,NNW,344,3.0,7.0,24,0.00,,,0.00,0.000000,,2013-03-23 07:52:00,
2013-03-23 01:02:00,36.0,9.0,-100.00,NNE,33,3.0,9.0,32,0.00,,,0.00,0.000000,,2013-03-23 08:02:00,
2013-03-23 01:22:00,36.0,9.0,-100.00,NNE,33,3.0,9.0,32,0.00,,,0.00,0.000000,,2013-03-23 08:22:00,
2013-03-23 01:32:00,36.0,9.0,-100.00,NNE,33,3.0,9.0,32,0.00,,,0.00,0.000000,,2013-03-23 08:32:00,
2013-03-23 01:42:00,36.0,9.0,-100.00,NNE,33,3.0,9.0,32,0.00,,,0.00,0.000000,,2013-03-23 08:42:00,
2013-03-23 01:52:00,36.0,9.0,-100.00,NNE,33,3.0,9.0,32,0.00,,,0.00,0.000000,,2013-03-23 08:52:00,
2013-03-23 02:02:00,36.0,12.0,-100.00,NE,45,4.0,6.0,36,0.00,,,0.00,0.000000,,2013-03-23 09:02:00,
2013-03-23 02:33:00,36.0,12.0,-100.00,NE,45,4.0,6.0,36,0.00,,,0.00,0.000000,,2013-03-23 09:33:00,
2013-03-23 02:43:00,36.0,12.0,-100.00,NE,45,4.0,6.0,36,0.00,,,0.00,0.000000,,2013-03-23 09:43:00,
2013-03-23 02:53:00,36.0,12.0,-100.00,NE,45,4.0,6.0,36,0.00,,,0.00,0.000000,,2013-03-23 09:53:00,
2013-03-23 03:02:00,36.0,17.0,-100.00,NE,50,3.0,6.0,45,0.00,,,0.00,0.000000,,2013-03-23 10:02:00,
2013-03-23 03:34:00,36.0,17.0,-100.00,NE,50,3.0,6.0,45,0.00,,,0.00,0.000000,,2013-03-23 10:34:00,
2013-03-23 03:43:00,36.0,17.0,-100.00,NE,50,3.0,6.0,45,0.00,,,0.00,0.000000,,2013-03-23 10:43:00,
2013-03-23 03:52:00,36.0,17.0,-100.00,NE,50,3.0,6.0,45,0.00,,,0.00,0.000000,,2013-03-23 10:52:00,
2013-03-23 04:02:00,36.0,17.0,-100.00,East,97,2.0,4.0,45,0.00,,,0.00,0.000000,,2013-03-23 11:02:00,
2013-03-23 04:32:00,36.0,17.0,-100.00,East,97,2.0,4.0,45,0.00,,,0.00,0.000000,,2013-03-23 11:32:00,
2013-03-23 04:42:00,36.0,17.0,-100.00,East,97,2.0,4.0,45,0.00,,,0.00,0.000000,,2013-03-23 11:42:00,
2013-03-23 04:52:00,36.0,17.0,-100.00,East,97,2.0,4.0,45,0.00,,,0.00,0.000000,,2013-03-23 11:52:00,
2013-03-23 05:02:00,36.0,19.0,-100.00,ENE,59,2.0,4.0,49,0.00,,,0.00,0.000000,,2013-03-23 12:02:00,
2013-03-23 05:22:00,36.0,19.0,-100.00,ENE,59,2.0,4.0,49,0.00,,,0.00,0.000000,,2013-03-23 12:22:00,
2013-03-23 05:33:00,36.0,19.0,-100.00,ENE,59,2.0,4.0,49,0.00,,,0.00,0.000000,,2013-03-23 12:33:00,
2013-03-23 05:43:00,36.0,19.0,-100.00,ENE,59,2.0,4.0,49,0.00,,,0.00,0.000000,,2013-03-23 12:43:00,
2013-03-23 05:53:00,36.0,19.0,-100.00,ENE,59,2.0,4.0,49,0.00,,,0.00,0.000000,,2013-03-23 12:53:00,
2013-03-23 06:02:00,35.0,19.0,-100.00,ENE,70,2.0,4.0,51,0.00,,,0.00,0.000000,,2013-03-23 13:02:00,
2013-03-23 06:33:00,35.0,19.0,-100.00,ENE,70,2.0,4.0,51,0.00,,,0.00,0.000000,,2013-03-23 13:33:00,
2013-03-23 06:43:00,35.0,19.0,-100.00,ENE,70,2.0,4.0,51,0.00,,,0.00,0.000000,,2013-03-23 13:43:00,
2013-03-23 06:53:00,35.0,19.0,-100.00,ENE,70,2.0,4.0,51,0.00,,,0.00,0.000000,,2013-03-23 13:53:00,
2013-03-23 07:02:00,35.0,19.0,-100.00,East,101,3.0,4.0,52,0.00,,,0.00,3.000000,,2013-03-23 14:02:00,
2013-03-23 07:33:00,35.0,19.0,-100.00,East,101,3.0,4.0,52,0.00,,,0.00,3.000000,,2013-03-23 14:33:00,
2013-03-23 07:43:00,35.0,19.0,-100.00,East,101,3.0,4.0,52,0.00,,,0.00,3.000000,,2013-03-23 14:43:00,
2013-03-23 07:52:00,35.0,19.0,-100.00,East,101,3.0,4.0,52,0.00,,,0.00,3.000000,,2013-03-23 14:52:00,
2013-03-23 08:02:00,43.0,23.0,-100.00,ENE,73,1.0,5.0,44,0.00,,,0.00,90.000000,,2013-03-23 15:02:00,
2013-03-23 08:34:00,43.0,23.0,-100.00,ENE,73,1.0,5.0,44,0.00,,,0.00,90.000000,,2013-03-23 15:34:00,
2013-03-23 08:44:00,43.0,23.0,-100.00,ENE,73,1.0,5.0,44,0.00,,,0.00,90.000000,,2013-03-23 15:44:00,
2013-03-23 08:53:00,43.0,23.0,-100.00,ENE,73,1.0,5.0,44,0.00,,,0.00,90.000000,,2013-03-23 15:53:00,
2013-03-23 09:02:00,48.0,16.0,-100.00,NNE,16,6.0,9.0,28,0.00,,,0.00,339.000000,,2013-03-23 16:02:00,
2013-03-23 09:33:00,48.0,16.0,-100.00,NNE,16,6.0,9.0,28,0.00,,,0.00,339.000000,,2013-03-23 16:33:00,
2013-03-23 09:43:00,48.0,16.0,-100.00,NNE,16,6.0,9.0,28,0.00,,,0.00,339.000000,,2013-03-23 16:43:00,
2013-03-23 09:53:00,48.0,16.0,-100.00,NNE,16,6.0,9.0,28,0.00,,,0.00,339.000000,,2013-03-23 16:53:00,
2013-03-23 10:02:00,50.0,19.0,-100.00,North,1,6.0,10.0,29,0.00,,,0.00,596.000000,,2013-03-23 17:02:00,
2013-03-23 10:33:00,50.0,19.0,-100.00,North,1,6.0,10.0,29,0.00,,,0.00,596.000000,,2013-03-23 17:33:00,
2013-03-23 10:43:00,50.0,19.0,-100.00,North,1,6.0,10.0,29,0.00,,,0.00,596.000000,,2013-03-23 17:43:00,
2013-03-23 10:52:00,50.0,19.0,-100.00,North,1,6.0,10.0,29,0.00,,,0.00,596.000000,,2013-03-23 17:52:00,
2013-03-23 11:02:00,53.0,22.0,-100.00,NNW,330,6.0,11.0,29,0.00,,,0.00,817.000000,,2013-03-23 18:02:00,
2013-03-23 11:23:00,53.0,22.0,-100.00,NNW,330,6.0,11.0,29,0.00,,,0.00,817.000000,,2013-03-23 18:23:00,
2013-03-23 11:32:00,53.0,22.0,-100.00,NNW,330,6.0,11.0,29,0.00,,,0.00,817.000000,,2013-03-23 18:32:00,
2013-03-23 11:43:00,53.0,22.0,-100.00,NNW,330,6.0,11.0,29,0.00,,,0.00,817.000000,,2013-03-23 18:43:00,
2013-03-23 11:53:00,53.0,22.0,-100.00,NNW,330,6.0,11.0,29,0.00,,,0.00,817.000000,,2013-03-23 18:53:00,
2013-03-23 12:02:00,55.0,23.0,-100.00,SW,232,7.0,12.0,29,0.00,,,0.00,978.000000,,2013-03-23 19:02:00,
2013-03-23 12:23:00,55.0,23.0,-100.00,SW,232,7.0,12.0,29,0.00,,,0.00,978.000000,,2013-03-23 19:23:00,
2013-03-23 12:33:00,55.0,23.0,-100.00,SW,232,7.0,12.0,29,0.00,,,0.00,978.000000,,2013-03-23 19:33:00,
2013-03-23 12:43:00,55.0,23.0,-100.00,SW,232,7.0,12.0,29,0.00,,,0.00,978.000000,,2013-03-23 19:43:00,
2013-03-23 12:53:00,55.0,23.0,-100.00,SW,232,7.0,12.0,29,0.00,,,0.00,978.000000,,2013-03-23 19:53:00,
2013-03-23 13:02:00,59.0,14.0,-100.00,SW,235,8.0,11.0,17,0.00,,,0.00,1066.000000,,2013-03-23 20:02:00,
2013-03-23 13:32:00,59.0,14.0,-100.00,SW,235,8.0,11.0,17,0.00,,,0.00,1066.000000,,2013-03-23 20:32:00,
2013-03-23 13:43:00,59.0,14.0,-100.00,SW,235,8.0,11.0,17,0.00,,,0.00,1066.000000,,2013-03-23 20:43:00,
2013-03-23 13:53:00,59.0,14.0,-100.00,SW,235,8.0,11.0,17,0.00,,,0.00,1066.000000,,2013-03-23 20:53:00,
2013-03-23 14:02:00,61.0,4.0,-100.00,SW,233,7.0,14.0,10,0.00,,,0.00,1083.000000,,2013-03-23 21:02:00,
2013-03-23 14:22:00,61.0,4.0,-100.00,SW,233,7.0,14.0,10,0.00,,,0.00,1083.000000,,2013-03-23 21:22:00,
2013-03-23 14:33:00,61.0,4.0,-100.00,SW,233,7.0,14.0,10,0.00,,,0.00,1083.000000,,2013-03-23 21:33:00,
2013-03-23 15:23:00,62.0,3.0,-100.00,West,264,7.0,12.0,9,0.00,,,0.00,1017.000000,,2013-03-23 22:23:00,
2013-03-23 15:33:00,62.0,3.0,-100.00,West,264,7.0,12.0,9,0.00,,,0.00,1017.000000,,2013-03-23 22:33:00,
2013-03-23 16:33:00,63.0,8.0,-100.00,West,259,6.0,12.0,11,0.00,,,0.00,869.000000,,2013-03-23 23:33:00,
2013-03-23 17:33:00,63.0,18.0,-100.00,West,262,6.0,11.0,17,0.00,,,0.00,622.000000,,2013-03-24 00:33:00,
2013-03-23 18:02:00,60.0,28.0,-100.00,SSW,201,7.0,11.0,29,0.00,,,0.00,383.000000,,2013-03-24 01:02:00,
2013-03-23 18:33:00,60.0,28.0,-100.00,SSW,201,7.0,11.0,29,0.00,,,0.00,383.000000,,2013-03-24 01:33:00,
2013-03-23 18:43:00,60.0,28.0,-100.00,SSW,201,7.0,11.0,29,0.00,,,0.00,383.000000,,2013-03-24 01:43:00,
2013-03-23 18:53:00,60.0,28.0,-100.00,SSW,201,7.0,11.0,29,0.00,,,0.00,383.000000,,2013-03-24 01:53:00,
2013-03-23 19:02:00,54.0,30.0,-100.00,South,189,4.0,11.0,39,0.00,,,0.00,80.000000,,2013-03-24 02:02:00,
2013-03-23 19:32:00,54.0,30.0,-100.00,South,189,4.0,11.0,39,0.00,,,0.00,80.000000,,2013-03-24 02:32:00,
2013-03-23 19:42:00,54.0,30.0,-100.00,South,189,4.0,11.0,39,0.00,,,0.00,80.000000,,2013-03-24 02:42:00,
2013-03-23 19:52:00,54.0,30.0,-100.00,South,189,4.0,11.0,39,0.00,,,0.00,80.000000,,2013-03-24 02:52:00,
2013-03-23 20:02:00,51.0,24.0,-100.00,SE,142,4.0,6.0,35,0.00,,,0.00,0.000000,,2013-03-24 03:02:00,
2013-03-23 20:33:00,51.0,24.0,-100.00,SE,142,4.0,6.0,35,0.00,,,0.00,0.000000,,2013-03-24 03:33:00,
2013-03-23 20:43:00,51.0,24.0,-100.00,SE,142,4.0,6.0,35,0.00,,,0.00,0.000000,,2013-03-24 03:43:00,
2013-03-23 20:53:00,51.0,24.0,-100.00,SE,142,4.0,6.0,35,0.00,,,0.00,0.000000,,2013-03-24 03:53:00,
2013-03-23 21:02:00,50.0,23.0,-100.00,SE,144,5.0,9.0,34,0.00,,,0.00,0.000000,,2013-03-24 04:02:00,
2013-03-23 21:33:00,50.0,23.0,-100.00,SE,144,5.0,9.0,34,0.00,,,0.00,0.000000,,2013-03-24 04:33:00,
2013-03-23 21:43:00,50.0,23.0,-100.00,SE,144,5.0,9.0,34,0.00,,,0.00,0.000000,,2013-03-24 04:43:00,
2013-03-23 21:53:00,50.0,23.0,-100.00,SE,144,5.0,9.0,34,0.00,,,0.00,0.000000,,2013-03-24 04:53:00,
2013-03-23 22:02:00,50.0,21.0,-100.00,SE,126,2.0,8.0,32,0.00,,,0.00,0.000000,,2013-03-24 05:02:00,
2013-03-23 22:32:00,50.0,21.0,-100.00,SE,126,2.0,8.0,32,0.00,,,0.00,0.000000,,2013-03-24 05:32:00,
2013-03-23 22:43:00,50.0,21.0,-100.00,SE,126,2.0,8.0,32,0.00,,,0.00,0.000000,,2013-03-24 05:43:00,
2013-03-23 22:52:00,50.0,21.0,-100.00,SE,126,2.0,8.0,32,0.00,,,0.00,0.000000,,2013-03-24 05:52:00,
2013-03-23 23:02:00,43.0,20.0,-100.00,East,89,3.0,5.0,40,0.00,,,0.00,0.000000,,2013-03-24 06:02:00,
2013-03-23 23:32:00,43.0,20.0,-100.00,East,89,3.0,5.0,40,0.00,,,0.00,0.000000,,2013-03-24 06:32:00,
2013-03-23 23:42:00,43.0,20.0,-100.00,East,89,3.0,5.0,40,0.00,,,0.00,0.000000,,2013-03-24 06:42:00,
2013-03-23 23:52:00,43.0,20.0,-100.00,East,89,3.0,5.0,40,0.00,,,0.00,0.000000,,2013-03-24 06:52:00,